[[{"header":{"parameterUnit":"m.s-1","parameterCategory":1,"la1":30.2991,"la2":30.254,"lo1":-89.0895,"lo2":-89.0444,"dy":0.0017,"dx":0.0017,"nx":28,"ny":28,"refTime":"2025-11-22T03:00:00:Z","depth":0,"parameterNumber":2,"parameterNumberName":"U-component_of_WINDS"},"data":[0,0,0,0,0,0,0,0,0,0,0,0,0,0,0,0,0,0,0,0,0,0,0,0,0,0,0,0,0,0,0,0,0,0,0,0,0,0,0,0,0,0,0,0,0,0,0,0,0,0,0,0,0,0,0,0,0,0,1.7906,1.7907,0,1.7982,1.7983,1.7984,1.7952,1.795,1.7948,1.7946,1.8027,1.8031,1.8035,0,0,0,0,0,0,0,0,0,0,0,0,0,1.7738,1.7741,1.7906,1.7907,1.7908,1.7982,1.7983,1.7984,1.7952,1.795,1.7947,1.7945,1.8026,1.803,1.8035,0,0,0,0,0,0,0,0,0,0,0,0,0,1.7812,1.7742,1.7906,1.7901,1.7901,1.7982,1.7983,1.7984,1.7952,1.795,1.7947,1.7944,1.8024,1.803,1.8036,1.8126,0,0,1.8053,1.8056,0,0,0,0,0,0,0,0,1.7808,1.7818,1.7901,1.7902,1.7902,1.7954,1.7953,1.8032,1.7953,1.7933,1.7946,1.7943,1.8005,1.8012,1.8033,1.813,1.8134,1.8054,1.8057,1.806,1.8061,0,0,0,0,0,0,0,1.7803,1.7815,1.7936,1.7902,1.7903,1.7896,1.7904,1.7968,1.7984,1.7935,1.7932,1.7942,1.8005,1.8027,1.8034,1.8135,1.8054,1.8059,1.8062,1.8065,1.831,1.8313,0,0,0,0,0,0,1.7797,1.7811,1.7934,1.7939,1.7847,1.7901,1.791,1.794,1.7983,1.7987,1.7944,1.794,1.8019,1.8028,1.8037,1.8146,1.806,1.8065,1.8069,1.8307,1.8311,1.8314,0,0,0,0,0,0,1.7794,1.7808,1.7931,1.7874,1.7889,1.7907,1.7942,1.7943,1.7965,1.799,1.7993,1.7963,1.8017,1.8029,1.8104,1.8148,1.8068,1.8073,1.8304,1.8309,1.8313,1.8364,0,0,0,0,0,0,1.7789,1.7807,1.7841,1.7875,1.7892,1.7996,1.7945,1.7947,1.7975,1.797,1.8009,1.8013,1.8016,1.8096,1.811,1.8155,1.8078,1.83,1.8306,1.8311,1.8358,1.837,1.8379,0,0,0,0,0,1.7783,1.7853,1.7843,1.7858,1.7935,1.7998,1.8008,1.8009,1.7979,1.8013,1.8029,1.8012,1.8141,1.8104,1.8119,1.8167,1.8297,1.8304,1.8311,1.8354,1.8367,1.8379,0,0,0,0,0,0,1.7825,1.7858,1.7846,1.793,1.7961,1.7993,1.8036,1.8024,1.8065,1.8059,1.806,1.8069,1.8146,1.8164,1.8122,1.8257,1.8215,1.8225,1.8242,1.8255,1.8266,1.8259,1.8082,0,0,0,0,0,1.7844,1.7892,1.7918,1.7989,1.8005,1.8018,1.8046,1.8044,1.8077,1.809,1.8112,1.8146,1.8194,1.8226,1.8272,1.8361,1.8369,1.8402,1.8412,1.8421,1.8429,1.8478,1.8492,1.8337,1.8337,1.8337,0,0,1.7883,1.7907,1.7937,1.7998,1.8022,1.8072,1.803,1.8085,1.8122,1.8099,1.8171,1.8188,1.8226,1.8308,1.8346,1.8326,1.8474,1.8429,1.8436,1.844,1.8486,1.8501,1.8514,1.8342,1.8341,1.834,0,0,1.7981,1.8004,1.8065,1.809,1.8127,1.8135,1.815,1.8183,1.8193,1.8265,1.8249,1.8294,1.8378,1.8405,1.843,1.8539,1.8524,1.8554,1.8608,1.8656,1.8668,1.8679,1.8717,1.8731,1.8563,1.8563,1.8563,0,1.8025,1.8099,1.8098,1.8155,1.8182,1.8163,1.8225,1.825,1.8301,1.832,1.8297,1.84,1.8425,1.8513,1.854,1.8561,1.8578,1.8549,1.8666,1.8677,1.8687,1.8724,1.8738,1.8566,1.8566,1.8565,1.8565,0,1.8152,1.8204,1.825,1.8297,1.833,1.8389,1.8398,1.8432,1.8427,1.8438,1.8512,1.854,1.8591,1.8612,1.8609,1.8701,1.8687,1.8665,1.8623,1.8705,1.874,1.8754,1.8571,1.857,1.8569,1.8568,0,0,1.8277,1.8324,1.8341,1.8362,1.8402,1.8442,1.8501,1.855,1.8579,1.8615,1.8664,1.8735,1.8715,1.8743,1.8743,1.8785,1.8869,1.8758,1.8759,1.8777,1.8971,1.8987,1.9003,1.886,1.8862,1.8864,1.8968,0,1.8377,1.8479,1.848,1.8574,1.8622,1.8604,1.8656,1.8686,1.8699,1.8742,1.8756,1.8806,1.8776,1.8793,1.8833,1.885,1.8908,1.8842,1.8906,1.8908,1.8896,1.9021,1.9038,1.9134,1.8981,1.8984,1.8985,0,1.8506,1.8545,1.8644,1.8676,1.8697,1.8743,1.8787,1.8829,1.8864,1.887,1.8902,1.8895,1.8956,1.8913,1.8997,1.8953,1.8979,1.8991,1.8995,1.9,1.8951,1.9029,1.9165,1.9179,1.9007,1.9005,1.9003,0,1.8587,1.8664,1.8733,1.8752,1.8792,1.8825,1.8843,1.8875,1.8904,1.8945,1.8964,1.9011,1.9037,1.9074,1.9081,1.9048,1.9165,1.9122,1.9172,1.9172,1.9197,1.9195,1.9338,1.9215,1.9215,1.9215,1.9215,0,1.8697,1.8758,1.8769,1.8811,1.8879,1.8881,1.8948,1.8964,1.8993,1.9039,1.9028,1.9071,1.9078,1.9123,1.9129,1.9198,1.921,1.9217,1.9218,1.9218,1.9217,1.9234,1.9227,1.9219,1.9218,1.9217,1.9216,0,1.8797,1.8808,1.8881,1.8913,1.8923,1.8971,1.8999,1.904,1.9051,1.9109,1.9123,1.9141,1.9194,1.9205,1.9268,1.9272,1.9354,1.9348,1.9341,1.9341,1.9389,1.9384,1.9548,1.9569,1.9434,1.9435,1.9436,0,1.8867,1.8913,1.895,1.8979,1.8999,1.9046,1.9076,1.908,1.9112,1.9155,1.9191,1.9242,1.9284,1.9369,1.9389,1.9437,1.9432,1.9486,1.9439,1.9437,1.9432,1.9429,1.9433,1.9495,1.9496,1.9497,1.9498,0,1.8988,1.8991,1.9034,1.9079,1.9114,1.915,1.9184,1.9209,1.9218,1.9254,1.9308,1.934,1.9403,1.9455,1.9503,1.9523,1.9513,1.9513,1.9527,1.9526,1.952,1.9524,1.9365,1.9509,1.9508,1.9507,1.9507,1.9506,1.9074,1.9114,1.9147,1.9195,1.9221,1.9253,1.9293,1.9309,1.9353,1.9405,1.9405,1.9463,1.9498,1.9561,1.9585,1.9631,1.9614,1.9634,1.9639,1.9644,1.9648,1.9514,1.964,1.964,1.9639,1.9639,1.9639,0,1.9194,1.9214,1.9259,1.9306,1.9345,1.9331,1.9368,1.9401,1.9452,1.9485,1.9525,1.9587,1.9637,1.9661,1.971,1.9743,1.9739,1.9756,1.9753,1.9757,1.9661,1.9643,1.9758,1.9758,1.9758,1.9757,1.9757,1.9757,1.9261,1.9328,1.9335,1.9415,1.9435,1.9491,1.9514,1.9544,1.957,1.9638,1.9679,1.9694,1.9724,1.9775,1.9821,1.9827,1.9845,1.9864,1.9867,1.9776,1.9764,1.9753,1.9736,1.9868,1.9868,1.996,1.9961,1.9961]},{"header":{"parameterUnit":"m.s-1","parameterCategory":1,"la1":30.2991,"la2":30.254,"lo1":-89.0895,"lo2":-89.0444,"dy":0.0017,"dx":0.0017,"nx":28,"ny":28,"refTime":"2025-11-22T03:00:00:Z","depth":0,"parameterNumber":3,"parameterNumberName":"V-component_of_WINDS"},"data":[0,0,0,0,0,0,0,0,0,0,0,0,0,0,0,0,0,0,0,0,0,0,0,0,0,0,0,0,0,0,0,0,0,0,0,0,0,0,0,0,0,0,0,0,0,0,0,0,0,0,0,0,0,0,0,0,0,0,2.7946,2.7945,0,2.7904,2.7903,2.7903,2.7876,2.7876,2.7875,2.7875,2.7828,2.7827,2.7826,0,0,0,0,0,0,0,0,0,0,0,0,0,2.7999,2.7998,2.7946,2.7945,2.7945,2.7904,2.7903,2.7902,2.7876,2.7876,2.7875,2.7875,2.7829,2.7827,2.7826,0,0,0,0,0,0,0,0,0,0,0,0,0,2.7968,2.7998,2.7946,2.7927,2.7924,2.7904,2.7903,2.7902,2.7876,2.7876,2.7875,2.7875,2.7829,2.7827,2.7826,2.782,0,0,2.7821,2.782,0,0,0,0,0,0,0,0,2.797,2.7966,2.793,2.7928,2.7925,2.7895,2.7905,2.7874,2.7876,2.7894,2.7875,2.7875,2.785,2.7847,2.7839,2.7818,2.7816,2.782,2.7819,2.7819,2.7818,0,0,0,0,0,0,0,2.7972,2.7968,2.7929,2.7929,2.7927,2.7919,2.7914,2.7899,2.7874,2.7893,2.7891,2.7886,2.7849,2.7841,2.7838,2.7815,2.7821,2.7819,2.7818,2.7817,2.7784,2.7785,0,0,0,0,0,0,2.7978,2.797,2.793,2.7928,2.7948,2.7918,2.7913,2.7905,2.7874,2.7869,2.7886,2.7885,2.7844,2.784,2.7836,2.7826,2.7819,2.7817,2.7816,2.7784,2.7785,2.7785,0,0,0,0,0,0,2.7979,2.7975,2.7932,2.7948,2.7942,2.7917,2.7908,2.7904,2.7896,2.7869,2.7864,2.7883,2.7844,2.7839,2.7824,2.7824,2.7816,2.7815,2.7784,2.7784,2.7785,2.7807,0,0,0,0,0,0,2.7981,2.7975,2.7974,2.7948,2.7941,2.7922,2.7909,2.7903,2.7894,2.7892,2.7865,2.786,2.7843,2.7827,2.7822,2.7822,2.7814,2.7784,2.7784,2.7785,2.7806,2.7808,2.781,0,0,0,0,0,2.7983,2.7981,2.7974,2.7969,2.7939,2.7922,2.7918,2.7899,2.7894,2.7891,2.7874,2.7861,2.7825,2.7825,2.782,2.7819,2.7784,2.7784,2.7785,2.7806,2.7808,2.781,0,0,0,0,0,0,2.8006,2.7978,2.7969,2.796,2.7944,2.7918,2.7914,2.7902,2.7887,2.7885,2.7862,2.7856,2.7843,2.783,2.7831,2.7811,2.7803,2.7802,2.7821,2.7823,2.7824,2.7828,2.7812,0,0,0,0,0,2.801,2.8,2.7975,2.7969,2.7961,2.7939,2.7931,2.7918,2.79,2.7893,2.7874,2.7856,2.7841,2.7831,2.7815,2.7804,2.7797,2.7801,2.7803,2.7804,2.7804,2.7796,2.7797,2.7786,2.7786,2.7786,0,0,2.8019,2.8002,2.7996,2.7973,2.7959,2.7948,2.7934,2.7922,2.7913,2.7891,2.7876,2.7862,2.784,2.7827,2.782,2.7815,2.7805,2.7805,2.7806,2.7805,2.7796,2.7797,2.7798,2.7786,2.7786,2.7786,0,0,2.8028,2.8014,2.8007,2.7994,2.7973,2.7959,2.7957,2.7933,2.7923,2.7908,2.7891,2.7878,2.7853,2.7837,2.7826,2.7829,2.7816,2.7824,2.7833,2.7826,2.7827,2.7827,2.7827,2.7828,2.7824,2.7824,2.7824,0,2.804,2.8023,2.8005,2.7995,2.7984,2.7965,2.7957,2.7944,2.7919,2.7912,2.7907,2.7873,2.7857,2.784,2.7841,2.7833,2.7829,2.7827,2.7828,2.7829,2.7829,2.7829,2.7829,2.7825,2.7825,2.7825,2.7825,0,2.8039,2.8028,2.8024,2.8002,2.7991,2.7982,2.7961,2.7952,2.794,2.7925,2.7909,2.7889,2.7869,2.7864,2.7852,2.7844,2.7842,2.7833,2.7824,2.7831,2.7831,2.7831,2.7827,2.7826,2.7826,2.7826,0,0,2.8062,2.8029,2.8028,2.8018,2.7993,2.7983,2.7973,2.7954,2.7946,2.7929,2.7919,2.7897,2.7888,2.7876,2.7861,2.7855,2.7857,2.7846,2.7846,2.7849,2.7847,2.7854,2.7854,2.7849,2.7848,2.7848,2.7848,0,2.8067,2.8048,2.8031,2.8018,2.8006,2.7987,2.7978,2.7961,2.7947,2.7933,2.7917,2.7902,2.7892,2.7884,2.7877,2.7859,2.7856,2.7858,2.7837,2.7837,2.7843,2.7854,2.7861,2.7862,2.7848,2.7848,2.7848,0,2.807,2.8055,2.8041,2.8018,2.8012,2.8004,2.7985,2.7973,2.7953,2.7943,2.7929,2.7914,2.79,2.7893,2.7872,2.7874,2.7864,2.7854,2.7853,2.785,2.7843,2.785,2.7862,2.7862,2.7848,2.7848,2.7848,0,2.8087,2.8063,2.8052,2.8043,2.8016,2.801,2.7998,2.7978,2.7968,2.795,2.7943,2.7924,2.7913,2.7898,2.7878,2.7874,2.7859,2.785,2.7849,2.7849,2.7846,2.7847,2.7856,2.7841,2.7841,2.7841,2.7841,0,2.8094,2.8086,2.8059,2.8052,2.8042,2.8022,2.8012,2.7998,2.798,2.7969,2.7951,2.794,2.7914,2.79,2.7883,2.7868,2.7864,2.7854,2.785,2.7855,2.7857,2.7848,2.7847,2.7841,2.7841,2.7841,2.7841,0,2.8111,2.8093,2.8079,2.8054,2.8048,2.8041,2.8019,2.8011,2.7995,2.7981,2.7977,2.7952,2.7934,2.7912,2.7887,2.7876,2.7862,2.7856,2.787,2.7867,2.7867,2.7867,2.7871,2.787,2.7856,2.7856,2.7856,0,2.8117,2.811,2.8085,2.8077,2.8066,2.8052,2.8042,2.8021,2.8011,2.7987,2.7981,2.7962,2.7946,2.7918,2.7897,2.7877,2.787,2.7873,2.7867,2.7873,2.7869,2.787,2.7868,2.7874,2.7874,2.7875,2.7875,0,2.8128,2.8119,2.8106,2.8089,2.8077,2.8062,2.8047,2.804,2.8016,2.8005,2.7987,2.7975,2.795,2.793,2.7908,2.7894,2.788,2.7877,2.7875,2.7881,2.7889,2.7884,2.7873,2.7877,2.7876,2.7876,2.7876,2.7876,2.8139,2.8132,2.8113,2.8098,2.8085,2.807,2.8061,2.8045,2.803,2.8009,2.7997,2.798,2.7958,2.7927,2.7913,2.7898,2.7893,2.7891,2.789,2.789,2.7892,2.7892,2.7894,2.7894,2.7894,2.7894,2.7893,0,2.8148,2.8135,2.8122,2.8101,2.8089,2.8079,2.8061,2.8051,2.8036,2.8018,2.8003,2.7982,2.7963,2.7941,2.792,2.7912,2.7905,2.7907,2.7907,2.7904,2.7898,2.7901,2.7913,2.7913,2.7913,2.7913,2.7913,2.7913,2.8152,2.814,2.8129,2.8109,2.8096,2.808,2.807,2.8056,2.8042,2.802,2.8005,2.7991,2.7971,2.7948,2.793,2.7924,2.7916,2.7921,2.7912,2.7906,2.7905,2.7903,2.7906,2.7919,2.7919,2.792,2.792,2.792]}]]